Time,TemperatureF,DewpointF,PressureIn,WindDirection,WindDirectionDegrees,WindSpeedMPH,WindSpeedGustMPH,Humidity,HourlyPrecipIn,Conditions,Clouds,dailyrainin,SoftwareType,DateUTC
2013-12-23 00:01:00,38.5,21.5,17.72,South,183,2.7,3.1,50,0.00,,---,0.00,VWS V14.00,2013-12-23 06:01:00,
2013-12-23 00:03:00,38.5,21.5,17.72,South,177,3.1,3.1,50,0.00,,---,0.00,VWS V14.00,2013-12-23 06:03:00,
2013-12-23 00:07:00,38.5,21.5,17.72,NNE,14,4.9,4.9,50,0.00,,---,0.00,VWS V14.00,2013-12-23 06:07:00,
2013-12-23 00:13:00,38.5,21.5,17.72,ENE,58,2.2,5.4,50,0.00,,---,0.00,VWS V14.00,2013-12-23 06:13:00,
2013-12-23 00:16:00,38.5,21.5,17.72,SSW,193,2.2,5.4,50,0.00,,---,0.00,VWS V14.00,2013-12-23 06:16:00,
2013-12-23 00:19:00,38.5,21.5,17.72,SSW,193,0.0,0.0,50,0.00,,---,0.00,VWS V14.00,2013-12-23 06:19:00,
2013-12-23 00:23:00,38.5,21.5,17.72,SSW,192,3.1,3.1,50,0.00,,---,0.00,VWS V14.00,2013-12-23 06:23:00,
2013-12-23 00:26:00,38.5,21.5,17.72,WSW,239,0.0,3.1,50,0.00,,---,0.00,VWS V14.00,2013-12-23 06:26:00,
2013-12-23 00:29:00,38.5,21.5,17.72,SW,222,0.0,3.1,50,0.00,,---,0.00,VWS V14.00,2013-12-23 06:29:00,
2013-12-23 00:32:00,38.5,21.5,17.72,SSE,160,2.7,3.1,50,0.00,,---,0.00,VWS V14.00,2013-12-23 06:32:00,
2013-12-23 00:33:00,38.5,21.5,17.72,South,187,2.2,3.1,50,0.00,,---,0.00,VWS V14.00,2013-12-23 06:33:00,
2013-12-23 00:35:00,38.5,21.5,17.72,SW,223,4.0,4.0,50,0.00,,---,0.00,VWS V14.00,2013-12-23 06:35:00,
2013-12-23 00:41:00,38.5,21.5,17.72,SSW,194,2.2,4.0,50,0.00,,---,0.00,VWS V14.00,2013-12-23 06:41:00,
2013-12-23 00:47:00,38.5,21.5,17.72,SSE,149,0.0,4.0,50,0.00,,---,0.00,VWS V14.00,2013-12-23 06:47:00,
2013-12-23 00:53:00,38.5,21.5,17.72,SSW,208,0.0,2.7,50,0.00,,---,0.00,VWS V14.00,2013-12-23 06:53:00,
2013-12-23 00:56:00,38.5,21.5,17.72,SW,221,3.1,3.1,50,0.00,,---,0.00,VWS V14.00,2013-12-23 06:56:00,
2013-12-23 01:02:00,38.0,20.5,17.72,SSW,210,4.0,4.0,49,0.00,,---,0.00,VWS V14.00,2013-12-23 07:02:00,
2013-12-23 01:03:00,38.0,20.5,17.72,SSW,210,4.0,4.0,49,0.00,,---,0.00,VWS V14.00,2013-12-23 07:03:00,
2013-12-23 01:08:00,38.0,20.5,17.72,SSW,192,0.0,4.0,49,0.00,,---,0.00,VWS V14.00,2013-12-23 07:08:00,
2013-12-23 01:14:00,38.0,20.5,17.72,SSW,192,0.0,4.0,49,0.00,,---,0.00,VWS V14.00,2013-12-23 07:14:00,
2013-12-23 01:17:00,38.0,20.5,17.72,WSW,237,0.0,4.0,49,0.00,,---,0.00,VWS V14.00,2013-12-23 07:17:00,
2013-12-23 01:18:00,38.0,20.5,17.72,WSW,237,0.0,4.0,49,0.00,,---,0.00,VWS V14.00,2013-12-23 07:18:00,
2013-12-23 01:23:00,38.0,20.5,17.72,WSW,237,0.0,0.0,49,0.00,,---,0.00,VWS V14.00,2013-12-23 07:23:00,
2013-12-23 01:29:00,38.0,20.5,17.72,SE,135,3.6,3.6,49,0.00,,---,0.00,VWS V14.00,2013-12-23 07:29:00,
2013-12-23 01:32:00,38.0,20.5,17.72,SSE,163,2.2,3.6,49,0.00,,---,0.00,VWS V14.00,2013-12-23 07:32:00,
2013-12-23 01:33:00,38.0,20.5,17.72,SSE,163,2.2,3.6,49,0.00,,---,0.00,VWS V14.00,2013-12-23 07:33:00,
2013-12-23 01:35:00,38.0,20.5,17.72,SSE,163,2.2,2.2,49,0.00,,---,0.00,VWS V14.00,2013-12-23 07:35:00,
2013-12-23 01:38:00,37.6,20.2,17.72,SSE,159,0.0,2.2,49,0.00,,---,0.00,VWS V14.00,2013-12-23 07:38:00,
2013-12-23 01:41:00,37.6,20.2,17.72,SSE,159,0.0,2.2,49,0.00,,---,0.00,VWS V14.00,2013-12-23 07:41:00,
2013-12-23 01:44:00,37.6,20.2,17.72,South,182,3.6,3.6,49,0.00,,---,0.00,VWS V14.00,2013-12-23 07:44:00,
2013-12-23 01:48:00,37.6,20.2,17.72,South,188,0.0,3.6,49,0.00,,---,0.00,VWS V14.00,2013-12-23 07:48:00,
2013-12-23 01:50:00,37.6,20.2,17.72,South,188,0.0,0.0,49,0.00,,---,0.00,VWS V14.00,2013-12-23 07:50:00,
2013-12-23 01:53:00,37.6,20.2,17.72,South,188,0.0,0.0,49,0.00,,---,0.00,VWS V14.00,2013-12-23 07:53:00,
2013-12-23 01:56:00,37.6,20.2,17.72,South,178,2.7,2.7,49,0.00,,---,0.00,VWS V14.00,2013-12-23 07:56:00,
2013-12-23 01:59:00,37.6,20.2,17.72,ESE,122,0.0,2.7,49,0.00,,---,0.00,VWS V14.00,2013-12-23 07:59:00,
2013-12-23 02:02:00,37.6,20.2,17.72,South,183,2.7,2.7,49,0.00,,---,0.00,VWS V14.00,2013-12-23 08:02:00,
2013-12-23 02:05:00,37.6,20.2,17.72,SSW,206,3.1,3.1,49,0.00,,---,0.00,VWS V14.00,2013-12-23 08:05:00,
2013-12-23 02:08:00,37.6,20.2,17.72,SSW,206,3.1,3.1,49,0.00,,---,0.00,VWS V14.00,2013-12-23 08:08:00,
2013-12-23 02:11:00,37.6,20.2,17.72,North,357,0.0,3.1,49,0.00,,---,0.00,VWS V14.00,2013-12-23 08:11:00,
2013-12-23 02:14:00,37.6,20.2,17.72,North,357,0.0,3.1,49,0.00,,---,0.00,VWS V14.00,2013-12-23 08:14:00,
2013-12-23 02:20:00,37.6,20.2,17.72,WNW,300,0.0,2.2,49,0.00,,---,0.00,VWS V14.00,2013-12-23 08:20:00,
2013-12-23 02:23:00,37.6,20.2,17.72,SSW,200,3.1,3.1,49,0.00,,---,0.00,VWS V14.00,2013-12-23 08:23:00,
2013-12-23 02:26:00,37.6,20.2,17.72,NNE,12,0.0,3.1,49,0.00,,---,0.00,VWS V14.00,2013-12-23 08:26:00,
2013-12-23 02:29:00,37.5,20.1,17.72,NNE,12,0.0,3.1,49,0.00,,---,0.00,VWS V14.00,2013-12-23 08:29:00,
2013-12-23 02:32:00,37.5,20.1,17.72,North,357,2.2,3.1,49,0.00,,---,0.00,VWS V14.00,2013-12-23 08:32:00,
2013-12-23 02:33:00,37.5,20.1,17.72,North,357,2.2,3.1,49,0.00,,---,0.00,VWS V14.00,2013-12-23 08:33:00,
2013-12-23 02:35:00,37.5,20.1,17.72,North,357,2.2,2.2,49,0.00,,---,0.00,VWS V14.00,2013-12-23 08:35:00,
2013-12-23 02:41:00,37.3,19.9,17.72,North,357,2.7,2.7,49,0.00,,---,0.00,VWS V14.00,2013-12-23 08:41:00,
2013-12-23 02:44:00,37.3,19.9,17.72,North,357,2.7,2.7,49,0.00,,---,0.00,VWS V14.00,2013-12-23 08:44:00,
2013-12-23 02:47:00,37.3,19.9,17.72,North,357,2.7,2.7,49,0.00,,---,0.00,VWS V14.00,2013-12-23 08:47:00,
2013-12-23 02:50:00,37.3,19.9,17.72,SSW,212,2.7,2.7,49,0.00,,---,0.00,VWS V14.00,2013-12-23 08:50:00,
2013-12-23 02:53:00,37.3,19.9,17.72,SSW,212,2.2,2.7,49,0.00,,---,0.00,VWS V14.00,2013-12-23 08:53:00,
2013-12-23 02:56:00,37.3,19.9,17.72,SSW,212,2.2,2.7,49,0.00,,---,0.00,VWS V14.00,2013-12-23 08:56:00,
2013-12-23 03:03:00,37.3,19.9,17.72,WSW,251,0.0,2.7,49,0.00,,---,0.00,VWS V14.00,2013-12-23 09:03:00,
2013-12-23 03:06:00,37.3,19.9,17.72,South,191,0.0,0.0,49,0.00,,---,0.00,VWS V14.00,2013-12-23 09:06:00,
2013-12-23 03:12:00,37.3,19.9,17.72,North,357,2.2,2.2,49,0.00,,---,0.00,VWS V14.00,2013-12-23 09:12:00,
2013-12-23 03:15:00,37.3,19.9,17.72,North,357,0.0,3.1,49,0.00,,---,0.00,VWS V14.00,2013-12-23 09:15:00,
2013-12-23 03:21:00,37.3,19.9,17.72,North,357,0.0,0.0,49,0.00,,---,0.00,VWS V14.00,2013-12-23 09:21:00,
2013-12-23 03:24:00,37.3,19.9,17.72,North,357,0.0,0.0,49,0.00,,---,0.00,VWS V14.00,2013-12-23 09:24:00,
2013-12-23 03:27:00,37.3,19.9,17.72,ENE,72,0.0,0.0,49,0.00,,---,0.00,VWS V14.00,2013-12-23 09:27:00,
2013-12-23 03:33:00,37.1,19.7,17.72,ENE,72,0.0,0.0,49,0.00,,---,0.00,VWS V14.00,2013-12-23 09:33:00,
2013-12-23 03:36:00,37.1,19.7,17.72,ENE,72,0.0,0.0,49,0.00,,---,0.00,VWS V14.00,2013-12-23 09:36:00,
2013-12-23 03:39:00,37.1,19.7,17.72,SW,216,2.7,2.7,49,0.00,,---,0.00,VWS V14.00,2013-12-23 09:39:00,
2013-12-23 03:45:00,37.1,19.7,17.72,SSW,199,2.2,3.6,49,0.00,,---,0.00,VWS V14.00,2013-12-23 09:45:00,
2013-12-23 03:48:00,37.1,19.7,17.72,SSW,209,0.0,3.6,49,0.00,,---,0.00,VWS V14.00,2013-12-23 09:48:00,
2013-12-23 03:51:00,37.1,19.7,17.72,South,179,0.0,0.0,49,0.00,,---,0.00,VWS V14.00,2013-12-23 09:51:00,
2013-12-23 03:54:00,37.1,19.7,17.72,South,179,0.0,0.0,49,0.00,,---,0.00,VWS V14.00,2013-12-23 09:54:00,
2013-12-23 03:57:00,37.1,19.7,17.72,South,183,0.0,0.0,49,0.00,,---,0.00,VWS V14.00,2013-12-23 09:57:00,
2013-12-23 04:00:00,37.1,19.7,17.72,SSE,167,0.0,0.0,49,0.00,,---,0.00,VWS V14.00,2013-12-23 10:00:00,
2013-12-23 04:03:00,37.1,19.7,17.72,SSE,167,0.0,0.0,49,0.00,,---,0.00,VWS V14.00,2013-12-23 10:03:00,
2013-12-23 04:06:00,37.1,19.7,17.72,South,174,0.0,0.0,49,0.00,,---,0.00,VWS V14.00,2013-12-23 10:06:00,
2013-12-23 04:09:00,37.1,19.7,17.72,South,174,0.0,0.0,49,0.00,,---,0.00,VWS V14.00,2013-12-23 10:09:00,
2013-12-23 04:12:00,36.7,19.4,17.72,South,174,0.0,0.0,49,0.00,,---,0.00,VWS V14.00,2013-12-23 10:12:00,
2013-12-23 04:15:00,36.7,19.4,17.72,WNW,283,0.0,0.0,49,0.00,,---,0.00,VWS V14.00,2013-12-23 10:15:00,
2013-12-23 04:18:00,36.7,19.4,17.72,North,350,3.6,3.6,49,0.00,,---,0.00,VWS V14.00,2013-12-23 10:18:00,
2013-12-23 04:21:00,36.7,19.4,17.72,North,4,0.0,3.6,49,0.00,,---,0.00,VWS V14.00,2013-12-23 10:21:00,
2013-12-23 04:27:00,36.7,19.4,17.72,NNE,21,0.0,3.6,49,0.00,,---,0.00,VWS V14.00,2013-12-23 10:27:00,
2013-12-23 04:30:00,36.7,19.4,17.72,WSW,254,0.0,3.6,49,0.00,,---,0.00,VWS V14.00,2013-12-23 10:30:00,
2013-12-23 04:33:00,36.7,19.4,17.72,North,3,5.4,5.4,49,0.00,,---,0.00,VWS V14.00,2013-12-23 10:33:00,
2013-12-23 04:39:00,36.7,19.4,17.72,SSE,166,0.0,5.4,49,0.00,,---,0.00,VWS V14.00,2013-12-23 10:39:00,
2013-12-23 04:42:00,36.7,19.4,17.72,SSW,198,2.2,5.4,49,0.00,,---,0.00,VWS V14.00,2013-12-23 10:42:00,
2013-12-23 04:48:00,36.7,19.4,17.72,SSE,163,0.0,5.4,49,0.00,,---,0.00,VWS V14.00,2013-12-23 10:48:00,
2013-12-23 04:51:00,36.7,19.4,17.72,SSE,163,0.0,0.0,49,0.00,,---,0.00,VWS V14.00,2013-12-23 10:51:00,
2013-12-23 04:57:00,36.7,19.4,17.72,NNW,337,0.0,0.0,49,0.00,,---,0.00,VWS V14.00,2013-12-23 10:57:00,
2013-12-23 05:03:00,36.7,19.4,17.72,North,353,0.0,0.0,49,0.00,,---,0.00,VWS V14.00,2013-12-23 11:03:00,
2013-12-23 05:06:00,36.7,19.4,17.72,NNW,341,2.7,2.7,49,0.00,,---,0.00,VWS V14.00,2013-12-23 11:06:00,
2013-12-23 05:09:00,36.7,19.4,17.72,NNW,341,2.7,2.7,49,0.00,,---,0.00,VWS V14.00,2013-12-23 11:09:00,
2013-12-23 05:12:00,36.7,19.4,17.72,NNE,25,0.0,2.7,49,0.00,,---,0.00,VWS V14.00,2013-12-23 11:12:00,
2013-12-23 05:18:00,36.4,19.1,17.72,NNW,344,3.6,4.0,49,0.00,,---,0.00,VWS V14.00,2013-12-23 11:18:00,
2013-12-23 05:24:00,36.4,19.1,17.72,NNW,344,3.6,3.6,49,0.00,,---,0.00,VWS V14.00,2013-12-23 11:24:00,
2013-12-23 05:30:00,36.4,19.1,17.72,South,187,0.0,3.6,49,0.00,,---,0.00,VWS V14.00,2013-12-23 11:30:00,
2013-12-23 05:33:00,36.4,19.1,17.72,NNE,15,0.0,3.6,49,0.00,,---,0.00,VWS V14.00,2013-12-23 11:33:00,
2013-12-23 05:34:00,36.4,19.1,17.72,NNE,15,0.0,3.6,49,0.00,,---,0.00,VWS V14.00,2013-12-23 11:34:00,
2013-12-23 05:36:00,36.4,19.1,17.72,NNE,15,0.0,0.0,49,0.00,,---,0.00,VWS V14.00,2013-12-23 11:36:00,
2013-12-23 05:39:00,36.4,19.1,17.72,NNE,15,0.0,0.0,49,0.00,,---,0.00,VWS V14.00,2013-12-23 11:39:00,
2013-12-23 05:42:00,36.4,19.1,17.72,NNE,15,0.0,0.0,49,0.00,,---,0.00,VWS V14.00,2013-12-23 11:42:00,
2013-12-23 05:48:00,36.4,19.1,17.72,North,357,2.2,2.7,49,0.00,,---,0.00,VWS V14.00,2013-12-23 11:48:00,
2013-12-23 05:49:00,36.4,19.1,17.72,North,357,2.2,2.7,49,0.00,,---,0.00,VWS V14.00,2013-12-23 11:49:00,
2013-12-23 05:54:00,36.4,19.1,17.72,North,11,0.0,2.2,49,0.00,,---,0.00,VWS V14.00,2013-12-23 11:54:00,
2013-12-23 05:57:00,36.2,18.9,17.72,West,265,0.0,2.2,49,0.00,,---,0.00,VWS V14.00,2013-12-23 11:57:00,
2013-12-23 06:00:00,36.2,18.9,17.72,West,265,0.0,2.2,49,0.00,,---,0.00,VWS V14.00,2013-12-23 12:00:00,
2013-12-23 06:03:00,36.2,18.9,17.72,North,6,0.0,2.2,49,0.00,,---,0.00,VWS V14.00,2013-12-23 12:03:00,
2013-12-23 06:06:00,36.2,18.9,17.72,WNW,283,3.6,3.6,49,0.00,,---,0.00,VWS V14.00,2013-12-23 12:06:00,
2013-12-23 06:09:00,36.2,18.9,17.72,WNW,283,3.6,3.6,49,0.00,,---,0.00,VWS V14.00,2013-12-23 12:09:00,
2013-12-23 06:15:00,36.2,18.9,17.72,North,0,3.1,3.6,49,0.00,,---,0.00,VWS V14.00,2013-12-23 12:15:00,
2013-12-23 06:18:00,36.2,18.9,17.72,North,0,3.1,3.6,49,0.00,,---,0.00,VWS V14.00,2013-12-23 12:18:00,
2013-12-23 06:21:00,36.2,18.9,17.72,NNW,339,2.2,3.1,49,0.00,,---,0.00,VWS V14.00,2013-12-23 12:21:00,
2013-12-23 06:24:00,35.8,18.6,17.72,NNW,339,0.0,3.1,49,0.00,,---,0.00,VWS V14.00,2013-12-23 12:24:00,
2013-12-23 06:27:00,35.8,18.6,17.72,South,189,0.0,3.1,49,0.00,,---,0.00,VWS V14.00,2013-12-23 12:27:00,
2013-12-23 06:30:00,35.8,18.6,17.72,North,357,0.0,3.1,49,0.00,,---,0.00,VWS V14.00,2013-12-23 12:30:00,
2013-12-23 06:33:00,35.8,18.6,17.72,North,357,0.0,3.1,49,0.00,,---,0.00,VWS V14.00,2013-12-23 12:33:00,
2013-12-23 06:39:00,35.8,18.6,17.72,SSW,194,0.0,0.0,49,0.00,,---,0.00,VWS V14.00,2013-12-23 12:39:00,
2013-12-23 06:42:00,35.8,18.6,17.72,SSW,194,0.0,0.0,49,0.00,,---,0.00,VWS V14.00,2013-12-23 12:42:00,
2013-12-23 06:45:00,35.8,18.6,17.72,SSE,156,0.0,0.0,49,0.00,,---,0.00,VWS V14.00,2013-12-23 12:45:00,
2013-12-23 06:48:00,35.8,18.6,17.72,SSE,156,0.0,0.0,49,0.00,,---,0.00,VWS V14.00,2013-12-23 12:48:00,
2013-12-23 06:54:00,35.8,18.6,17.72,SSE,156,0.0,0.0,49,0.00,,---,0.00,VWS V14.00,2013-12-23 12:54:00,
2013-12-23 06:57:00,35.8,18.6,17.72,ESE,114,0.0,0.0,49,0.00,,---,0.00,VWS V14.00,2013-12-23 12:57:00,
2013-12-23 07:00:00,35.8,18.6,17.72,ESE,114,0.0,0.0,49,0.00,,---,0.00,VWS V14.00,2013-12-23 13:00:00,
2013-12-23 07:03:00,35.8,18.6,17.72,SSW,196,0.0,0.0,49,0.00,,---,0.00,VWS V14.00,2013-12-23 13:03:00,
2013-12-23 07:06:00,35.8,18.6,17.72,SW,218,0.0,0.0,49,0.00,,---,0.00,VWS V14.00,2013-12-23 13:06:00,
2013-12-23 07:09:00,35.3,18.1,17.72,North,4,0.0,0.0,49,0.00,,---,0.00,VWS V14.00,2013-12-23 13:09:00,
2013-12-23 07:12:00,35.3,18.1,17.72,North,0,2.7,2.7,49,0.00,,---,0.00,VWS V14.00,2013-12-23 13:12:00,
2013-12-23 07:15:00,35.3,18.1,17.72,North,3,0.0,2.7,49,0.00,,---,0.00,VWS V14.00,2013-12-23 13:15:00,
2013-12-23 07:18:00,35.3,18.1,17.72,North,3,0.0,2.7,49,0.00,,---,0.00,VWS V14.00,2013-12-23 13:18:00,
2013-12-23 07:21:00,35.3,18.1,17.72,NNE,28,2.7,2.7,49,0.00,,---,0.00,VWS V14.00,2013-12-23 13:21:00,
2013-12-23 07:24:00,35.3,18.1,17.72,North,4,0.0,2.7,49,0.00,,---,0.00,VWS V14.00,2013-12-23 13:24:00,
2013-12-23 07:28:00,35.3,18.1,17.72,North,4,0.0,2.7,49,0.00,,---,0.00,VWS V14.00,2013-12-23 13:28:00,
2013-12-23 07:31:00,35.3,18.1,17.72,SSE,151,0.0,2.7,49,0.00,,---,0.00,VWS V14.00,2013-12-23 13:31:00,
2013-12-23 07:34:00,35.3,18.1,17.72,SSW,204,0.0,2.7,49,0.00,,---,0.00,VWS V14.00,2013-12-23 13:34:00,
2013-12-23 07:37:00,35.3,18.1,17.72,SSW,204,0.0,0.0,49,0.00,,---,0.00,VWS V14.00,2013-12-23 13:37:00,
2013-12-23 07:40:00,35.3,18.1,17.72,SSE,155,0.0,0.0,49,0.00,,---,0.00,VWS V14.00,2013-12-23 13:40:00,
2013-12-23 07:43:00,34.8,17.1,17.72,South,184,0.0,0.0,48,0.00,,---,0.00,VWS V14.00,2013-12-23 13:43:00,
2013-12-23 07:46:00,34.8,17.1,17.72,South,184,0.0,0.0,48,0.00,,---,0.00,VWS V14.00,2013-12-23 13:46:00,
2013-12-23 07:48:00,34.8,17.1,17.72,SSE,161,2.2,2.2,48,0.00,,---,0.00,VWS V14.00,2013-12-23 13:48:00,
2013-12-23 07:52:00,35.1,17.9,17.72,SSE,161,2.2,2.2,49,0.00,,---,0.00,VWS V14.00,2013-12-23 13:52:00,
2013-12-23 07:55:00,35.1,17.9,17.72,South,185,0.0,2.2,49,0.00,,---,0.00,VWS V14.00,2013-12-23 13:55:00,
2013-12-23 07:58:00,35.1,17.9,17.72,South,185,0.0,2.2,49,0.00,,---,0.00,VWS V14.00,2013-12-23 13:58:00,
2013-12-23 08:01:00,35.1,17.9,17.72,NNE,16,0.0,2.2,49,0.00,,---,0.00,VWS V14.00,2013-12-23 14:01:00,
2013-12-23 08:03:00,35.1,17.9,17.72,North,4,0.0,2.2,49,0.00,,---,0.00,VWS V14.00,2013-12-23 14:03:00,
2013-12-23 08:04:00,35.1,17.9,17.72,North,4,0.0,0.0,49,0.00,,---,0.00,VWS V14.00,2013-12-23 14:04:00,
2013-12-23 08:07:00,35.1,17.9,17.72,North,4,2.7,2.7,49,0.00,,---,0.00,VWS V14.00,2013-12-23 14:07:00,
2013-12-23 08:13:00,35.1,17.9,17.72,SW,222,0.0,2.7,49,0.00,,---,0.00,VWS V14.00,2013-12-23 14:13:00,
2013-12-23 08:16:00,38.7,21.2,17.72,NNE,12,0.0,2.7,49,0.00,,---,0.00,VWS V14.00,2013-12-23 14:16:00,
2013-12-23 08:18:00,38.7,21.2,17.72,WSW,246,0.0,2.7,49,0.00,,---,0.00,VWS V14.00,2013-12-23 14:18:00,
2013-12-23 08:19:00,38.7,21.2,17.72,WSW,246,0.0,0.0,49,0.00,,---,0.00,VWS V14.00,2013-12-23 14:19:00,
2013-12-23 08:22:00,38.7,21.2,17.72,NNE,12,0.0,2.7,49,0.00,,---,0.00,VWS V14.00,2013-12-23 14:22:00,
2013-12-23 08:25:00,40.0,22.4,17.72,North,4,0.0,2.7,49,0.00,,---,0.00,VWS V14.00,2013-12-23 14:25:00,
2013-12-23 08:28:00,40.0,22.4,17.72,North,357,0.0,2.7,49,0.00,,---,0.00,VWS V14.00,2013-12-23 14:28:00,
2013-12-23 08:31:00,40.0,22.4,17.72,North,4,0.0,2.7,49,0.00,,---,0.00,VWS V14.00,2013-12-23 14:31:00,
2013-12-23 08:33:00,40.0,22.4,17.72,North,4,0.0,2.7,49,0.00,,---,0.00,VWS V14.00,2013-12-23 14:33:00,
2013-12-23 08:34:00,41.4,23.7,17.72,North,4,0.0,0.0,49,0.00,,---,0.00,VWS V14.00,2013-12-23 14:34:00,
2013-12-23 08:37:00,41.6,23.9,17.72,NNE,21,0.0,0.0,49,0.00,,---,0.00,VWS V14.00,2013-12-23 14:37:00,
2013-12-23 08:40:00,41.6,23.9,17.72,NW,309,0.0,0.0,49,0.00,,---,0.00,VWS V14.00,2013-12-23 14:40:00,
2013-12-23 08:46:00,43.0,25.2,17.72,North,7,0.0,0.0,49,0.00,,---,0.00,VWS V14.00,2013-12-23 14:46:00,
2013-12-23 08:48:00,43.0,25.2,17.72,SSE,154,0.0,0.0,49,0.00,,---,0.00,VWS V14.00,2013-12-23 14:48:00,
2013-12-23 08:49:00,43.0,25.2,17.72,SSE,154,0.0,0.0,49,0.00,,---,0.00,VWS V14.00,2013-12-23 14:49:00,
2013-12-23 08:52:00,43.0,25.2,17.72,ESE,114,2.7,2.7,49,0.00,,---,0.00,VWS V14.00,2013-12-23 14:52:00,
2013-12-23 08:55:00,43.0,25.2,17.72,SSE,153,0.0,2.7,49,0.00,,---,0.00,VWS V14.00,2013-12-23 14:55:00,
2013-12-23 08:58:00,47.4,29.2,17.72,SSE,149,2.7,2.7,49,0.00,,---,0.00,VWS V14.00,2013-12-23 14:58:00,
2013-12-23 09:01:00,47.4,29.2,17.72,SSW,192,0.0,2.7,49,0.00,,---,0.00,VWS V14.00,2013-12-23 15:01:00,
2013-12-23 09:04:00,47.4,29.2,17.72,SSW,192,0.0,2.7,49,0.00,,---,0.00,VWS V14.00,2013-12-23 15:04:00,
2013-12-23 09:07:00,51.7,32.6,17.72,SSW,192,0.0,0.0,48,0.00,,---,0.00,VWS V14.00,2013-12-23 15:07:00,
2013-12-23 09:10:00,51.7,32.6,17.72,North,353,0.0,0.0,48,0.00,,---,0.00,VWS V14.00,2013-12-23 15:10:00,
2013-12-23 09:13:00,53.5,34.3,17.72,ESE,108,0.0,0.0,48,0.00,,---,0.00,VWS V14.00,2013-12-23 15:13:00,
2013-12-23 09:16:00,53.5,34.3,17.72,South,188,0.0,2.7,48,0.00,,---,0.00,VWS V14.00,2013-12-23 15:16:00,
2013-12-23 09:18:00,55.3,35.4,17.72,North,1,3.1,3.1,47,0.00,,---,0.00,VWS V14.00,2013-12-23 15:18:00,
2013-12-23 09:19:00,55.3,35.4,17.72,North,1,3.1,3.1,47,0.00,,---,0.00,VWS V14.00,2013-12-23 15:19:00,
2013-12-23 09:25:00,57.6,37.0,17.72,North,357,0.0,3.1,46,0.00,,---,0.00,VWS V14.00,2013-12-23 15:25:00,
2013-12-23 09:31:00,58.2,36.9,17.72,NE,38,0.0,3.1,45,0.00,,---,0.00,VWS V14.00,2013-12-23 15:31:00,
2013-12-23 09:34:00,58.2,36.9,17.72,North,3,0.0,0.0,45,0.00,,---,0.00,VWS V14.00,2013-12-23 15:34:00,
2013-12-23 09:37:00,61.4,38.7,17.72,West,274,0.0,0.0,43,0.00,,---,0.00,VWS V14.00,2013-12-23 15:37:00,
2013-12-23 09:43:00,61.4,38.7,17.72,South,186,0.0,2.2,43,0.00,,---,0.00,VWS V14.00,2013-12-23 15:43:00,
2013-12-23 09:46:00,61.4,38.7,17.72,South,186,0.0,2.2,43,0.00,,---,0.00,VWS V14.00,2013-12-23 15:46:00,
2013-12-23 09:48:00,61.4,38.7,17.72,South,186,0.0,2.2,43,0.00,,---,0.00,VWS V14.00,2013-12-23 15:48:00,
2013-12-23 09:49:00,61.4,38.7,17.72,South,181,0.0,0.0,43,0.00,,---,0.00,VWS V14.00,2013-12-23 15:49:00,
2013-12-23 09:52:00,64.5,40.9,17.72,South,181,0.0,0.0,42,0.00,,---,0.00,VWS V14.00,2013-12-23 15:52:00,
2013-12-23 09:58:00,64.5,40.9,17.72,SW,214,0.0,0.0,42,0.00,,---,0.00,VWS V14.00,2013-12-23 15:58:00,
2013-12-23 10:01:00,64.5,40.9,17.72,East,95,0.0,0.0,42,0.00,,---,0.00,VWS V14.00,2013-12-23 16:01:00,
2013-12-23 10:07:00,64.5,40.9,17.72,NNW,342,2.7,2.7,42,0.00,,---,0.00,VWS V14.00,2013-12-23 16:07:00,
2013-12-23 10:10:00,64.5,40.9,17.72,NNW,342,2.7,2.7,42,0.00,,---,0.00,VWS V14.00,2013-12-23 16:10:00,
2013-12-23 10:16:00,71.3,43.7,17.72,NE,40,0.0,2.7,37,0.00,,---,0.00,VWS V14.00,2013-12-23 16:16:00,
2013-12-23 10:18:00,71.3,43.7,17.72,NE,40,0.0,2.7,37,0.00,,---,0.00,VWS V14.00,2013-12-23 16:18:00,
2013-12-23 10:19:00,71.3,43.7,17.72,NE,40,0.0,0.0,37,0.00,,---,0.00,VWS V14.00,2013-12-23 16:19:00,
2013-12-23 10:22:00,71.3,43.7,17.72,NE,40,0.0,0.0,37,0.00,,---,0.00,VWS V14.00,2013-12-23 16:22:00,
2013-12-23 10:25:00,71.3,43.7,17.72,North,11,0.0,0.0,37,0.00,,---,0.00,VWS V14.00,2013-12-23 16:25:00,
2013-12-23 10:28:00,71.3,43.7,17.72,NNE,31,0.0,0.0,37,0.00,,---,0.00,VWS V14.00,2013-12-23 16:28:00,
2013-12-23 10:33:00,74.0,44.6,17.72,NNE,31,0.0,0.0,35,0.00,,---,0.00,VWS V14.00,2013-12-23 16:33:00,
2013-12-23 10:34:00,74.0,44.6,17.72,NNE,31,0.0,0.0,35,0.00,,---,0.00,VWS V14.00,2013-12-23 16:34:00,
2013-12-23 10:37:00,74.0,44.6,17.72,SSE,163,0.0,0.0,35,0.00,,---,0.00,VWS V14.00,2013-12-23 16:37:00,
2013-12-23 10:40:00,74.0,44.6,17.72,SSE,163,2.2,2.2,35,0.00,,---,0.00,VWS V14.00,2013-12-23 16:40:00,
2013-12-23 10:43:00,76.7,47.0,17.72,SSE,162,0.0,2.2,35,0.00,,---,0.00,VWS V14.00,2013-12-23 16:43:00,
2013-12-23 10:48:00,76.7,47.0,17.72,NE,37,0.0,2.2,35,0.00,,---,0.00,VWS V14.00,2013-12-23 16:48:00,
2013-12-23 10:49:00,76.7,47.0,17.72,NE,37,0.0,0.0,35,0.00,,---,0.00,VWS V14.00,2013-12-23 16:49:00,
2013-12-23 10:52:00,78.9,48.1,17.72,South,190,2.2,2.2,34,0.00,,---,0.00,VWS V14.00,2013-12-23 16:52:00,
2013-12-23 10:58:00,78.9,48.1,17.72,SW,222,2.2,2.7,34,0.00,,---,0.00,VWS V14.00,2013-12-23 16:58:00,
2013-12-23 11:01:00,78.9,48.1,17.72,SW,222,2.2,2.7,34,0.00,,---,0.00,VWS V14.00,2013-12-23 17:01:00,
2013-12-23 11:04:00,78.9,48.1,17.72,NNE,13,2.2,2.7,34,0.00,,---,0.00,VWS V14.00,2013-12-23 17:04:00,
2013-12-23 11:10:00,78.7,48.0,17.72,NNW,344,2.7,3.6,34,0.00,,---,0.00,VWS V14.00,2013-12-23 17:10:00,
2013-12-23 11:13:00,78.7,48.0,17.72,North,9,5.4,5.4,34,0.00,,---,0.00,VWS V14.00,2013-12-23 17:13:00,
2013-12-23 11:16:00,78.1,47.5,17.72,NNW,334,2.7,5.4,34,0.00,,---,0.00,VWS V14.00,2013-12-23 17:16:00,
2013-12-23 11:18:00,78.1,47.5,17.72,NNW,334,2.7,5.4,34,0.00,,---,0.00,VWS V14.00,2013-12-23 17:18:00,
2013-12-23 11:22:00,77.4,46.9,17.72,NW,314,0.0,3.6,34,0.00,,---,0.00,VWS V14.00,2013-12-23 17:22:00,
2013-12-23 11:28:00,77.4,46.9,17.72,North,353,0.0,3.6,34,0.00,,---,0.00,VWS V14.00,2013-12-23 17:28:00,
2013-12-23 11:31:00,77.4,46.9,17.72,North,353,0.0,3.6,34,0.00,,---,0.00,VWS V14.00,2013-12-23 17:31:00,
2013-12-23 11:33:00,76.5,46.1,17.72,North,8,0.0,3.6,34,0.00,,---,0.00,VWS V14.00,2013-12-23 17:33:00,
2013-12-23 11:34:00,76.5,46.1,17.72,North,8,0.0,0.0,34,0.00,,---,0.00,VWS V14.00,2013-12-23 17:34:00,
2013-12-23 11:40:00,76.2,46.5,17.72,SSW,203,0.0,0.0,35,0.00,,---,0.00,VWS V14.00,2013-12-23 17:40:00,
2013-12-23 11:43:00,76.0,46.4,17.72,SSW,203,0.0,0.0,35,0.00,,---,0.00,VWS V14.00,2013-12-23 17:43:00,
2013-12-23 11:48:00,75.8,46.2,17.72,North,349,2.7,4.5,35,0.00,,---,0.00,VWS V14.00,2013-12-23 17:48:00,
2013-12-23 11:52:00,75.8,46.2,17.72,NNW,330,2.7,3.1,35,0.00,,---,0.00,VWS V14.00,2013-12-23 17:52:00,
2013-12-23 11:55:00,75.8,46.2,17.72,NNW,346,0.0,3.1,35,0.00,,---,0.00,VWS V14.00,2013-12-23 17:55:00,
2013-12-23 12:01:00,75.4,46.7,17.72,NNE,33,2.7,3.1,36,0.00,,---,0.00,VWS V14.00,2013-12-23 18:01:00,
2013-12-23 12:04:00,75.4,46.7,17.72,NNE,33,2.7,2.7,36,0.00,,---,0.00,VWS V14.00,2013-12-23 18:04:00,
2013-12-23 12:07:00,75.4,46.7,17.72,North,7,2.2,2.7,36,0.00,,---,0.00,VWS V14.00,2013-12-23 18:07:00,
2013-12-23 12:10:00,75.1,46.3,17.72,North,8,0.0,2.7,36,0.00,,---,0.00,VWS V14.00,2013-12-23 18:10:00,
2013-12-23 12:16:00,75.1,46.3,17.72,West,278,0.0,2.7,36,0.00,,---,0.00,VWS V14.00,2013-12-23 18:16:00,
2013-12-23 12:18:00,75.1,46.3,17.72,NNW,333,2.2,2.7,36,0.00,,---,0.00,VWS V14.00,2013-12-23 18:18:00,
2013-12-23 12:19:00,75.1,46.3,17.72,NNE,18,2.7,2.7,36,0.00,,---,0.00,VWS V14.00,2013-12-23 18:19:00,
2013-12-23 12:22:00,75.1,46.3,17.72,NNE,18,0.0,2.7,36,0.00,,---,0.00,VWS V14.00,2013-12-23 18:22:00,
2013-12-23 12:25:00,75.1,47.1,17.72,ESE,111,0.0,2.7,37,0.00,,---,0.00,VWS V14.00,2013-12-23 18:25:00,
2013-12-23 12:28:00,75.1,47.1,17.72,NNW,338,0.0,2.7,37,0.00,,---,0.00,VWS V14.00,2013-12-23 18:28:00,
2013-12-23 12:31:00,75.1,47.1,17.72,NNW,338,0.0,2.7,37,0.00,,---,0.00,VWS V14.00,2013-12-23 18:31:00,
2013-12-23 12:33:00,75.1,47.1,17.72,NNW,341,3.1,3.1,37,0.00,,---,0.00,VWS V14.00,2013-12-23 18:33:00,
2013-12-23 12:34:00,75.1,47.1,17.72,NNW,341,3.1,3.1,37,0.00,,---,0.00,VWS V14.00,2013-12-23 18:34:00,
2013-12-23 12:40:00,75.3,47.2,17.72,North,353,0.0,3.1,37,0.00,,---,0.00,VWS V14.00,2013-12-23 18:40:00,
2013-12-23 12:43:00,75.3,47.2,17.72,North,353,0.0,3.1,37,0.00,,---,0.00,VWS V14.00,2013-12-23 18:43:00,
2013-12-23 12:46:00,75.3,47.2,17.72,North,0,0.0,3.1,37,0.00,,---,0.00,VWS V14.00,2013-12-23 18:46:00,
2013-12-23 12:48:00,75.3,47.2,17.72,North,0,0.0,3.1,37,0.00,,---,0.00,VWS V14.00,2013-12-23 18:48:00,
2013-12-23 12:55:00,75.6,47.5,17.72,North,0,0.0,0.0,37,0.00,,---,0.00,VWS V14.00,2013-12-23 18:55:00,
2013-12-23 12:58:00,75.6,47.5,17.72,North,11,0.0,0.0,37,0.00,,---,0.00,VWS V14.00,2013-12-23 18:58:00,
2013-12-23 13:03:00,75.6,47.5,17.72,North,11,0.0,0.0,37,0.00,,---,0.00,VWS V14.00,2013-12-23 19:03:00,
2013-12-23 13:05:00,75.6,47.5,17.72,North,11,0.0,0.0,37,0.00,,---,0.00,VWS V14.00,2013-12-23 19:05:00,
2013-12-23 13:08:00,75.8,47.7,17.72,North,11,0.0,0.0,37,0.00,,---,0.00,VWS V14.00,2013-12-23 19:08:00,
2013-12-23 13:11:00,75.8,47.7,17.72,North,11,0.0,0.0,37,0.00,,---,0.00,VWS V14.00,2013-12-23 19:11:00,
2013-12-23 13:14:00,75.8,47.7,17.72,North,11,0.0,0.0,37,0.00,,---,0.00,VWS V14.00,2013-12-23 19:14:00,
2013-12-23 13:17:00,75.8,47.7,17.72,North,11,0.0,0.0,37,0.00,,---,0.00,VWS V14.00,2013-12-23 19:17:00,
2013-12-23 13:18:00,75.8,47.7,17.72,North,11,0.0,0.0,37,0.00,,---,0.00,VWS V14.00,2013-12-23 19:18:00,
2013-12-23 13:20:00,75.8,47.7,17.72,North,11,0.0,0.0,37,0.00,,---,0.00,VWS V14.00,2013-12-23 19:20:00,
2013-12-23 13:23:00,76.2,48.0,17.72,North,11,0.0,0.0,37,0.00,,---,0.00,VWS V14.00,2013-12-23 19:23:00,
2013-12-23 13:26:00,76.2,48.0,17.72,North,349,4.0,4.0,37,0.00,,---,0.00,VWS V14.00,2013-12-23 19:26:00,
2013-12-23 13:29:00,76.2,48.0,17.72,North,349,4.0,4.0,37,0.00,,---,0.00,VWS V14.00,2013-12-23 19:29:00,
2013-12-23 13:32:00,76.2,48.0,17.72,NE,39,0.0,4.0,37,0.00,,---,0.00,VWS V14.00,2013-12-23 19:32:00,
2013-12-23 13:33:00,76.2,48.0,17.72,NE,39,0.0,4.0,37,0.00,,---,0.00,VWS V14.00,2013-12-23 19:33:00,
2013-12-23 13:35:00,76.2,48.0,17.72,NE,39,0.0,0.0,37,0.00,,---,0.00,VWS V14.00,2013-12-23 19:35:00,
2013-12-23 13:38:00,76.2,48.0,17.72,NE,39,0.0,0.0,37,0.00,,---,0.00,VWS V14.00,2013-12-23 19:38:00,
2013-12-23 13:41:00,76.2,48.0,17.72,North,5,0.0,0.0,37,0.00,,---,0.00,VWS V14.00,2013-12-23 19:41:00,
2013-12-23 13:44:00,76.2,48.0,17.72,North,5,0.0,0.0,37,0.00,,---,0.00,VWS V14.00,2013-12-23 19:44:00,
2013-12-23 13:47:00,76.2,48.0,17.72,SSW,193,2.7,2.7,37,0.00,,---,0.00,VWS V14.00,2013-12-23 19:47:00,
2013-12-23 13:50:00,76.2,48.0,17.72,SSW,193,2.7,2.7,37,0.00,,---,0.00,VWS V14.00,2013-12-23 19:50:00,
2013-12-23 13:53:00,76.2,48.0,17.72,SSE,168,0.0,2.7,37,0.00,,---,0.00,VWS V14.00,2013-12-23 19:53:00,
2013-12-23 13:56:00,76.0,47.9,17.72,West,261,0.0,2.7,37,0.00,,---,0.00,VWS V14.00,2013-12-23 19:56:00,
2013-12-23 14:02:00,76.0,47.9,17.72,North,8,0.0,3.1,37,0.00,,---,0.00,VWS V14.00,2013-12-23 20:02:00,
2013-12-23 14:03:00,75.4,47.4,17.72,North,8,0.0,3.1,37,0.00,,---,0.00,VWS V14.00,2013-12-23 20:03:00,
2013-12-23 14:05:00,75.4,47.4,17.72,North,8,0.0,0.0,37,0.00,,---,0.00,VWS V14.00,2013-12-23 20:05:00,
2013-12-23 14:11:00,74.7,46.7,17.72,North,8,0.0,0.0,37,0.00,,---,0.00,VWS V14.00,2013-12-23 20:11:00,
2013-12-23 14:14:00,74.5,46.6,17.72,North,8,0.0,0.0,37,0.00,,---,0.00,VWS V14.00,2013-12-23 20:14:00,
2013-12-23 14:17:00,74.5,46.6,17.72,North,8,0.0,0.0,37,0.00,,---,0.00,VWS V14.00,2013-12-23 20:17:00,
2013-12-23 14:18:00,74.5,46.6,17.72,North,8,0.0,0.0,37,0.00,,---,0.00,VWS V14.00,2013-12-23 20:18:00,
2013-12-23 14:23:00,73.6,45.8,17.72,SSE,147,0.0,0.0,37,0.00,,---,0.00,VWS V14.00,2013-12-23 20:23:00,
2013-12-23 14:26:00,73.6,45.8,17.72,SW,233,3.1,3.1,37,0.00,,---,0.00,VWS V14.00,2013-12-23 20:26:00,
2013-12-23 14:29:00,72.9,45.2,17.72,SW,233,3.1,3.1,37,0.00,,---,0.00,VWS V14.00,2013-12-23 20:29:00,
2013-12-23 14:32:00,72.6,44.8,17.72,SW,233,3.1,3.1,37,0.00,,---,0.00,VWS V14.00,2013-12-23 20:32:00,
2013-12-23 14:33:00,72.6,44.8,17.72,South,173,0.0,3.1,37,0.00,,---,0.00,VWS V14.00,2013-12-23 20:33:00,
2013-12-23 14:35:00,72.6,44.8,17.72,South,173,0.0,0.0,37,0.00,,---,0.00,VWS V14.00,2013-12-23 20:35:00,
2013-12-23 14:38:00,71.7,44.0,17.72,South,173,0.0,0.0,37,0.00,,---,0.00,VWS V14.00,2013-12-23 20:38:00,
2013-12-23 14:41:00,71.3,43.7,17.72,South,173,0.0,0.0,37,0.00,,---,0.00,VWS V14.00,2013-12-23 20:41:00,
2013-12-23 14:44:00,70.9,43.4,17.72,North,353,2.7,2.7,37,0.00,,---,0.00,VWS V14.00,2013-12-23 20:44:00,
2013-12-23 14:47:00,70.6,43.1,17.72,North,7,0.0,2.7,37,0.00,,---,0.00,VWS V14.00,2013-12-23 20:47:00,
2013-12-23 14:49:00,70.6,43.1,17.72,North,7,0.0,2.7,37,0.00,,---,0.00,VWS V14.00,2013-12-23 20:49:00,
2013-12-23 14:53:00,70.6,43.1,17.72,North,7,0.0,0.0,37,0.00,,---,0.00,VWS V14.00,2013-12-23 20:53:00,
2013-12-23 14:56:00,69.5,42.8,17.72,North,7,0.0,0.0,38,0.00,,---,0.00,VWS V14.00,2013-12-23 20:56:00,
2013-12-23 14:59:00,69.5,42.8,17.72,SSW,203,2.7,2.7,38,0.00,,---,0.00,VWS V14.00,2013-12-23 20:59:00,
2013-12-23 15:02:00,68.6,42.0,17.72,SSW,203,0.0,2.7,38,0.00,,---,0.00,VWS V14.00,2013-12-23 21:02:00,
2013-12-23 15:03:00,68.4,41.8,17.72,South,177,2.7,2.7,38,0.00,,---,0.00,VWS V14.00,2013-12-23 21:03:00,
2013-12-23 15:05:00,68.4,41.8,17.72,South,177,2.7,2.7,38,0.00,,---,0.00,VWS V14.00,2013-12-23 21:05:00,
2013-12-23 15:11:00,68.4,41.8,17.72,South,191,0.0,2.7,38,0.00,,---,0.00,VWS V14.00,2013-12-23 21:11:00,
2013-12-23 15:14:00,67.5,41.0,17.72,South,191,0.0,2.7,38,0.00,,---,0.00,VWS V14.00,2013-12-23 21:14:00,
2013-12-23 15:17:00,67.5,41.0,17.72,South,188,0.0,2.7,38,0.00,,---,0.00,VWS V14.00,2013-12-23 21:17:00,
2013-12-23 15:18:00,67.0,40.6,17.72,South,188,0.0,2.7,38,0.00,,---,0.00,VWS V14.00,2013-12-23 21:18:00,
2013-12-23 15:20:00,67.0,40.6,17.72,South,188,0.0,0.0,38,0.00,,---,0.00,VWS V14.00,2013-12-23 21:20:00,
2013-12-23 15:23:00,66.6,40.2,17.72,North,2,0.0,0.0,38,0.00,,---,0.00,VWS V14.00,2013-12-23 21:23:00,
2013-12-23 15:29:00,66.1,39.8,17.72,NE,45,2.2,2.2,38,0.00,,---,0.00,VWS V14.00,2013-12-23 21:29:00,
2013-12-23 15:32:00,66.1,39.8,17.72,South,183,0.0,2.2,38,0.00,,---,0.00,VWS V14.00,2013-12-23 21:32:00,
2013-12-23 15:33:00,66.1,39.8,17.72,South,183,0.0,2.2,38,0.00,,---,0.00,VWS V14.00,2013-12-23 21:33:00,
2013-12-23 15:35:00,66.1,39.8,17.72,South,183,0.0,0.0,38,0.00,,---,0.00,VWS V14.00,2013-12-23 21:35:00,
2013-12-23 15:38:00,66.1,39.8,17.72,SSW,212,0.0,0.0,38,0.00,,---,0.00,VWS V14.00,2013-12-23 21:38:00,
2013-12-23 15:41:00,64.5,37.6,17.72,North,357,0.0,0.0,37,0.00,,---,0.00,VWS V14.00,2013-12-23 21:41:00,
2013-12-23 15:47:00,64.1,37.3,17.72,South,188,0.0,0.0,37,0.00,,---,0.00,VWS V14.00,2013-12-23 21:47:00,
2013-12-23 15:48:00,64.1,37.3,17.72,South,175,0.0,0.0,37,0.00,,---,0.00,VWS V14.00,2013-12-23 21:48:00,
2013-12-23 15:50:00,64.1,37.3,17.72,South,175,0.0,0.0,37,0.00,,---,0.00,VWS V14.00,2013-12-23 21:50:00,
2013-12-23 15:56:00,63.0,37.0,17.72,South,182,0.0,0.0,38,0.00,,---,0.00,VWS V14.00,2013-12-23 21:56:00,
2013-12-23 16:02:00,62.5,36.5,17.72,SW,222,0.0,0.0,38,0.00,,---,0.00,VWS V14.00,2013-12-23 22:02:00,
2013-12-23 16:03:00,62.1,36.2,17.72,SW,222,0.0,0.0,38,0.00,,---,0.00,VWS V14.00,2013-12-23 22:03:00,
2013-12-23 16:05:00,62.1,36.2,17.72,SW,222,0.0,0.0,38,0.00,,---,0.00,VWS V14.00,2013-12-23 22:05:00,
2013-12-23 16:08:00,61.8,35.9,17.72,SW,226,0.0,0.0,38,0.00,,---,0.00,VWS V14.00,2013-12-23 22:08:00,
2013-12-23 16:14:00,61.2,35.4,17.72,North,5,0.0,0.0,38,0.00,,---,0.00,VWS V14.00,2013-12-23 22:14:00,
2013-12-23 16:17:00,61.2,35.4,17.72,North,5,0.0,0.0,38,0.00,,---,0.00,VWS V14.00,2013-12-23 22:17:00,
2013-12-23 16:20:00,60.5,34.8,17.72,North,5,0.0,0.0,38,0.00,,---,0.00,VWS V14.00,2013-12-23 22:20:00,
2013-12-23 16:23:00,60.5,34.8,17.72,South,188,0.0,2.2,38,0.00,,---,0.00,VWS V14.00,2013-12-23 22:23:00,
2013-12-23 16:26:00,60.5,34.8,17.72,South,188,0.0,2.2,38,0.00,,---,0.00,VWS V14.00,2013-12-23 22:26:00,
2013-12-23 16:29:00,59.8,34.2,17.72,SSW,212,3.1,3.1,38,0.00,,---,0.00,VWS V14.00,2013-12-23 22:29:00,
2013-12-23 16:32:00,59.8,34.2,17.72,SSW,212,3.1,3.1,38,0.00,,---,0.00,VWS V14.00,2013-12-23 22:32:00,
2013-12-23 16:33:00,59.2,33.7,17.72,SSW,212,3.1,3.1,38,0.00,,---,0.00,VWS V14.00,2013-12-23 22:33:00,
2013-12-23 16:35:00,59.2,33.7,17.72,SSW,212,3.1,3.1,38,0.00,,---,0.00,VWS V14.00,2013-12-23 22:35:00,
2013-12-23 16:38:00,59.2,33.7,17.72,SSE,150,0.0,3.1,38,0.00,,---,0.00,VWS V14.00,2013-12-23 22:38:00,
2013-12-23 16:41:00,59.2,33.7,17.72,SSE,150,0.0,3.1,38,0.00,,---,0.00,VWS V14.00,2013-12-23 22:41:00,
2013-12-23 16:47:00,58.0,32.5,17.72,NE,34,0.0,3.1,38,0.00,,---,0.00,VWS V14.00,2013-12-23 22:47:00,
2013-12-23 16:48:00,58.0,32.5,17.72,NE,34,0.0,3.1,38,0.00,,---,0.00,VWS V14.00,2013-12-23 22:48:00,
2013-12-23 16:50:00,58.0,32.5,17.72,South,178,2.7,2.7,38,0.00,,---,0.00,VWS V14.00,2013-12-23 22:50:00,
2013-12-23 16:53:00,57.6,32.2,17.72,South,178,2.7,2.7,38,0.00,,---,0.00,VWS V14.00,2013-12-23 22:53:00,
2013-12-23 16:56:00,57.6,32.2,17.72,NE,56,0.0,2.7,38,0.00,,---,0.00,VWS V14.00,2013-12-23 22:56:00,
2013-12-23 16:59:00,57.6,32.2,17.72,SSE,164,0.0,2.7,38,0.00,,---,0.00,VWS V14.00,2013-12-23 22:59:00,
2013-12-23 17:02:00,57.6,32.2,17.72,North,2,0.0,2.7,38,0.00,,---,0.00,VWS V14.00,2013-12-23 23:02:00,
2013-12-23 17:05:00,57.6,32.2,17.72,SW,231,0.0,0.0,38,0.00,,---,0.00,VWS V14.00,2013-12-23 23:05:00,
2013-12-23 17:08:00,56.4,31.1,17.72,SW,231,0.0,0.0,38,0.00,,---,0.00,VWS V14.00,2013-12-23 23:08:00,
2013-12-23 17:11:00,56.2,30.9,17.72,SW,231,0.0,0.0,38,0.00,,---,0.00,VWS V14.00,2013-12-23 23:11:00,
2013-12-23 17:14:00,55.8,31.2,17.72,South,184,0.0,0.0,39,0.00,,---,0.00,VWS V14.00,2013-12-23 23:14:00,
2013-12-23 17:17:00,55.8,31.2,17.72,South,184,0.0,0.0,39,0.00,,---,0.00,VWS V14.00,2013-12-23 23:17:00,
2013-12-23 17:18:00,55.8,31.2,17.72,South,184,0.0,0.0,39,0.00,,---,0.00,VWS V14.00,2013-12-23 23:18:00,
2013-12-23 17:23:00,55.5,30.9,17.72,South,179,2.7,2.7,39,0.00,,---,0.00,VWS V14.00,2013-12-23 23:23:00,
2013-12-23 17:26:00,55.5,30.9,17.72,South,179,2.7,2.7,39,0.00,,---,0.00,VWS V14.00,2013-12-23 23:26:00,
2013-12-23 17:29:00,54.7,30.3,17.72,South,179,2.7,2.7,39,0.00,,---,0.00,VWS V14.00,2013-12-23 23:29:00,
2013-12-23 17:33:00,54.7,30.3,17.72,SSW,213,0.0,2.7,39,0.00,,---,0.00,VWS V14.00,2013-12-23 23:33:00,
2013-12-23 17:35:00,54.7,30.3,17.72,SSW,213,0.0,0.0,39,0.00,,---,0.00,VWS V14.00,2013-12-23 23:35:00,
2013-12-23 17:41:00,54.0,29.6,17.72,North,1,0.0,0.0,39,0.00,,---,0.00,VWS V14.00,2013-12-23 23:41:00,
2013-12-23 17:44:00,53.7,29.3,17.72,North,5,0.0,0.0,39,0.00,,---,0.00,VWS V14.00,2013-12-23 23:44:00,
2013-12-23 17:47:00,53.7,29.3,17.72,SW,227,3.1,3.1,39,0.00,,---,0.00,VWS V14.00,2013-12-23 23:47:00,
2013-12-23 17:48:00,53.7,29.3,17.72,SW,227,3.1,3.1,39,0.00,,---,0.00,VWS V14.00,2013-12-23 23:48:00,
2013-12-23 17:53:00,53.1,28.8,17.72,SSE,156,0.0,3.1,39,0.00,,---,0.00,VWS V14.00,2013-12-23 23:53:00,
2013-12-23 17:56:00,53.1,28.8,17.72,SSE,156,0.0,3.1,39,0.00,,---,0.00,VWS V14.00,2013-12-23 23:56:00,
2013-12-23 17:59:00,52.8,28.5,17.72,West,263,0.0,3.1,39,0.00,,---,0.00,VWS V14.00,2013-12-23 23:59:00,
2013-12-23 18:02:00,52.4,28.2,17.72,West,263,0.0,3.1,39,0.00,,---,0.00,VWS V14.00,2013-12-24 00:02:00,
2013-12-23 18:03:00,52.4,28.2,17.72,West,263,0.0,3.1,39,0.00,,---,0.00,VWS V14.00,2013-12-24 00:03:00,
2013-12-23 18:08:00,52.0,27.9,17.72,ESE,117,0.0,0.0,39,0.00,,---,0.00,VWS V14.00,2013-12-24 00:08:00,
2013-12-23 18:11:00,52.0,27.9,17.72,SSW,197,3.6,3.6,39,0.00,,---,0.00,VWS V14.00,2013-12-24 00:11:00,
2013-12-23 18:15:00,52.0,27.9,17.72,SSW,197,3.6,3.6,39,0.00,,---,0.00,VWS V14.00,2013-12-24 00:15:00,
2013-12-23 18:18:00,51.5,27.4,17.72,ENE,68,0.0,3.6,39,0.00,,---,0.00,VWS V14.00,2013-12-24 00:18:00,
2013-12-23 18:21:00,51.5,27.4,17.72,ENE,68,0.0,0.0,39,0.00,,---,0.00,VWS V14.00,2013-12-24 00:21:00,
2013-12-23 18:24:00,51.5,27.4,17.72,WSW,243,0.0,0.0,39,0.00,,---,0.00,VWS V14.00,2013-12-24 00:24:00,
2013-12-23 18:27:00,51.0,26.9,17.72,North,3,0.0,3.1,39,0.00,,---,0.00,VWS V14.00,2013-12-24 00:27:00,
2013-12-23 18:30:00,51.0,26.9,17.72,SSE,157,0.0,3.1,39,0.00,,---,0.00,VWS V14.00,2013-12-24 00:30:00,
2013-12-23 18:33:00,50.8,26.7,17.72,SSE,157,0.0,3.1,39,0.00,,---,0.00,VWS V14.00,2013-12-24 00:33:00,
2013-12-23 18:39:00,50.4,27.0,17.72,SSW,208,3.1,3.1,40,0.00,,---,0.00,VWS V14.00,2013-12-24 00:39:00,
2013-12-23 18:42:00,50.1,26.7,17.72,SSW,208,3.1,3.1,40,0.00,,---,0.00,VWS V14.00,2013-12-24 00:42:00,
2013-12-23 18:48:00,50.1,26.7,17.72,South,171,2.2,3.1,40,0.00,,---,0.00,VWS V14.00,2013-12-24 00:48:00,
2013-12-23 18:51:00,49.7,26.4,17.72,South,171,2.2,2.2,40,0.00,,---,0.00,VWS V14.00,2013-12-24 00:51:00,
2013-12-23 18:54:00,49.5,26.2,17.72,South,171,2.2,2.2,40,0.00,,---,0.00,VWS V14.00,2013-12-24 00:54:00,
2013-12-23 19:00:00,49.3,26.0,17.72,WSW,239,2.2,2.7,40,0.00,,---,0.00,VWS V14.00,2013-12-24 01:00:00,
2013-12-23 19:06:00,49.3,26.0,17.72,WNW,303,0.0,0.0,40,0.00,,---,0.00,VWS V14.00,2013-12-24 01:06:00,
2013-12-23 19:09:00,49.3,26.0,17.72,ESE,122,0.0,0.0,40,0.00,,---,0.00,VWS V14.00,2013-12-24 01:09:00,
2013-12-23 19:15:00,48.6,25.4,17.72,NNE,33,0.0,0.0,40,0.00,,---,0.00,VWS V14.00,2013-12-24 01:15:00,
2013-12-23 19:18:00,48.4,25.2,17.72,NNE,33,0.0,0.0,40,0.00,,---,0.00,VWS V14.00,2013-12-24 01:18:00,
2013-12-23 19:21:00,48.3,25.1,17.72,SSW,196,0.0,0.0,40,0.00,,---,0.00,VWS V14.00,2013-12-24 01:21:00,
2013-12-23 19:24:00,48.1,24.9,17.72,South,182,4.0,4.0,40,0.00,,---,0.00,VWS V14.00,2013-12-24 01:24:00,
2013-12-23 19:30:00,48.1,24.9,17.72,SSW,198,2.7,4.0,40,0.00,,---,0.00,VWS V14.00,2013-12-24 01:30:00,
2013-12-23 19:33:00,47.7,24.6,17.72,SW,217,2.2,4.0,40,0.00,,---,0.00,VWS V14.00,2013-12-24 01:33:00,
2013-12-23 19:39:00,47.7,24.6,17.72,SW,217,0.0,2.2,40,0.00,,---,0.00,VWS V14.00,2013-12-24 01:39:00,
2013-12-23 19:42:00,47.4,24.3,17.72,SW,217,0.0,2.2,40,0.00,,---,0.00,VWS V14.00,2013-12-24 01:42:00,
2013-12-23 19:48:00,47.0,24.0,17.72,SSW,205,3.6,3.6,40,0.00,,---,0.00,VWS V14.00,2013-12-24 01:48:00,
2013-12-23 19:54:00,47.0,24.0,17.72,SSW,205,3.6,3.6,40,0.00,,---,0.00,VWS V14.00,2013-12-24 01:54:00,
2013-12-23 19:57:00,47.0,24.0,17.72,SSE,162,2.7,3.6,40,0.00,,---,0.00,VWS V14.00,2013-12-24 01:57:00,
2013-12-23 20:00:00,46.6,23.6,17.72,SSE,162,2.7,3.6,40,0.00,,---,0.00,VWS V14.00,2013-12-24 02:00:00,
2013-12-23 20:03:00,46.5,23.5,17.72,SE,132,0.0,3.6,40,0.00,,---,0.00,VWS V14.00,2013-12-24 02:03:00,
2013-12-23 20:06:00,46.5,23.5,17.72,SE,132,0.0,0.0,40,0.00,,---,0.00,VWS V14.00,2013-12-24 02:06:00,
2013-12-23 20:12:00,46.3,23.3,17.72,South,187,0.0,2.7,40,0.00,,---,0.00,VWS V14.00,2013-12-24 02:12:00,
2013-12-23 20:15:00,46.3,23.3,17.72,South,187,0.0,2.7,40,0.00,,---,0.00,VWS V14.00,2013-12-24 02:15:00,
2013-12-23 20:18:00,45.9,23.0,17.72,South,187,0.0,2.7,40,0.00,,---,0.00,VWS V14.00,2013-12-24 02:18:00,
2013-12-23 20:21:00,45.9,23.0,17.72,South,187,0.0,0.0,40,0.00,,---,0.00,VWS V14.00,2013-12-24 02:21:00,
2013-12-23 20:24:00,45.7,22.8,17.72,South,187,0.0,0.0,40,0.00,,---,0.00,VWS V14.00,2013-12-24 02:24:00,
2013-12-23 20:27:00,45.6,22.6,17.72,SSW,207,2.7,2.7,40,0.00,,---,0.00,VWS V14.00,2013-12-24 02:27:00,
2013-12-23 20:30:00,45.6,22.6,17.72,SSW,207,2.7,2.7,40,0.00,,---,0.00,VWS V14.00,2013-12-24 02:30:00,
2013-12-23 20:33:00,45.4,22.5,17.72,South,173,0.0,2.7,40,0.00,,---,0.00,VWS V14.00,2013-12-24 02:33:00,
2013-12-23 20:34:00,45.4,22.5,17.72,South,173,0.0,2.7,40,0.00,,---,0.00,VWS V14.00,2013-12-24 02:34:00,
2013-12-23 20:39:00,45.2,22.3,17.72,SSW,199,2.7,2.7,40,0.00,,---,0.00,VWS V14.00,2013-12-24 02:39:00,
2013-12-23 20:42:00,45.0,22.2,17.72,SSW,199,2.7,2.7,40,0.00,,---,0.00,VWS V14.00,2013-12-24 02:42:00,
2013-12-23 20:45:00,45.0,22.2,17.72,SSW,208,0.0,2.7,40,0.00,,---,0.00,VWS V14.00,2013-12-24 02:45:00,
2013-12-23 20:48:00,44.8,22.0,17.72,SSW,198,2.7,2.7,40,0.00,,---,0.00,VWS V14.00,2013-12-24 02:48:00,
2013-12-23 20:51:00,44.8,22.0,17.72,SSW,198,2.7,2.7,40,0.00,,---,0.00,VWS V14.00,2013-12-24 02:51:00,
2013-12-23 20:54:00,44.7,21.8,17.72,NNE,23,0.0,2.7,40,0.00,,---,0.00,VWS V14.00,2013-12-24 02:54:00,
2013-12-23 20:57:00,44.7,21.8,17.72,NNE,23,0.0,2.7,40,0.00,,---,0.00,VWS V14.00,2013-12-24 02:57:00,
2013-12-23 21:00:00,44.5,21.7,17.72,South,189,0.0,2.7,40,0.00,,---,0.00,VWS V14.00,2013-12-24 03:00:00,
2013-12-23 21:03:00,44.5,21.7,17.72,South,189,0.0,2.7,40,0.00,,---,0.00,VWS V14.00,2013-12-24 03:03:00,
2013-12-23 21:06:00,44.3,21.5,17.72,South,189,0.0,0.0,40,0.00,,---,0.00,VWS V14.00,2013-12-24 03:06:00,
2013-12-23 21:09:00,44.3,21.5,17.72,South,189,0.0,0.0,40,0.00,,---,0.00,VWS V14.00,2013-12-24 03:09:00,
2013-12-23 21:12:00,44.1,21.4,17.72,South,189,0.0,0.0,40,0.00,,---,0.00,VWS V14.00,2013-12-24 03:12:00,
2013-12-23 21:18:00,44.1,21.4,17.72,West,268,0.0,0.0,40,0.00,,---,0.00,VWS V14.00,2013-12-24 03:18:00,
2013-12-23 21:21:00,43.9,21.2,17.72,West,268,0.0,0.0,40,0.00,,---,0.00,VWS V14.00,2013-12-24 03:21:00,
2013-12-23 21:24:00,43.8,21.0,17.72,West,268,0.0,0.0,40,0.00,,---,0.00,VWS V14.00,2013-12-24 03:24:00,
2013-12-23 21:27:00,43.8,21.0,17.72,WSW,253,0.0,0.0,40,0.00,,---,0.00,VWS V14.00,2013-12-24 03:27:00,
2013-12-23 21:30:00,43.6,20.9,17.72,WSW,253,0.0,0.0,40,0.00,,---,0.00,VWS V14.00,2013-12-24 03:30:00,
2013-12-23 21:33:00,43.4,20.7,17.72,WSW,253,0.0,0.0,40,0.00,,---,0.00,VWS V14.00,2013-12-24 03:33:00,
2013-12-23 21:39:00,43.2,20.5,17.72,WSW,253,0.0,0.0,40,0.00,,---,0.00,VWS V14.00,2013-12-24 03:39:00,
2013-12-23 21:42:00,43.2,20.5,17.72,WSW,255,0.0,0.0,40,0.00,,---,0.00,VWS V14.00,2013-12-24 03:42:00,
2013-12-23 21:45:00,43.0,20.4,17.72,WSW,255,0.0,0.0,40,0.00,,---,0.00,VWS V14.00,2013-12-24 03:45:00,
2013-12-23 21:48:00,43.0,20.4,17.72,WSW,255,0.0,0.0,40,0.00,,---,0.00,VWS V14.00,2013-12-24 03:48:00,
2013-12-23 21:54:00,42.9,20.2,17.72,SW,233,0.0,0.0,40,0.00,,---,0.00,VWS V14.00,2013-12-24 03:54:00,
2013-12-23 21:57:00,42.7,20.1,17.72,WSW,241,0.0,0.0,40,0.00,,---,0.00,VWS V14.00,2013-12-24 03:57:00,
2013-12-23 22:03:00,42.7,20.1,17.72,NNW,344,0.0,0.0,40,0.00,,---,0.00,VWS V14.00,2013-12-24 04:03:00,
2013-12-23 22:06:00,42.7,20.1,17.72,NNW,344,0.0,0.0,40,0.00,,---,0.00,VWS V14.00,2013-12-24 04:06:00,
2013-12-23 22:09:00,42.7,20.1,17.72,NNW,344,0.0,0.0,40,0.00,,---,0.00,VWS V14.00,2013-12-24 04:09:00,
2013-12-23 22:12:00,42.1,19.6,17.72,NNW,344,0.0,0.0,40,0.00,,---,0.00,VWS V14.00,2013-12-24 04:12:00,
2013-12-23 22:15:00,42.1,19.6,17.72,North,3,0.0,0.0,40,0.00,,---,0.00,VWS V14.00,2013-12-24 04:15:00,
2013-12-23 22:18:00,42.1,19.6,17.72,North,3,0.0,0.0,40,0.00,,---,0.00,VWS V14.00,2013-12-24 04:18:00,
2013-12-23 22:21:00,41.8,19.2,17.72,North,3,0.0,0.0,40,0.00,,---,0.00,VWS V14.00,2013-12-24 04:21:00,
2013-12-23 22:27:00,41.8,19.2,17.72,North,3,0.0,0.0,40,0.00,,---,0.00,VWS V14.00,2013-12-24 04:27:00,
2013-12-23 22:30:00,41.6,19.1,17.72,North,3,0.0,0.0,40,0.00,,---,0.00,VWS V14.00,2013-12-24 04:30:00,
2013-12-23 22:33:00,41.4,18.9,17.72,NNE,21,2.7,2.7,40,0.00,,---,0.00,VWS V14.00,2013-12-24 04:33:00,
2013-12-23 22:36:00,41.2,18.8,17.72,NNE,21,2.7,2.7,40,0.00,,---,0.00,VWS V14.00,2013-12-24 04:36:00,
2013-12-23 22:39:00,41.1,18.6,17.72,NNE,21,2.7,2.7,40,0.00,,---,0.00,VWS V14.00,2013-12-24 04:39:00,
2013-12-23 22:42:00,41.1,18.6,17.72,NNE,19,3.6,3.6,40,0.00,,---,0.00,VWS V14.00,2013-12-24 04:42:00,
2013-12-23 22:45:00,40.9,18.4,17.72,NNE,19,3.6,3.6,40,0.00,,---,0.00,VWS V14.00,2013-12-24 04:45:00,
2013-12-23 22:48:00,40.9,18.4,17.72,NNE,12,2.7,3.6,40,0.00,,---,0.00,VWS V14.00,2013-12-24 04:48:00,
2013-12-23 22:51:00,40.7,18.3,17.72,West,281,0.0,2.7,40,0.00,,---,0.00,VWS V14.00,2013-12-24 04:51:00,
2013-12-23 22:54:00,40.5,18.1,17.72,West,281,0.0,2.7,40,0.00,,---,0.00,VWS V14.00,2013-12-24 04:54:00,
2013-12-23 22:57:00,40.5,18.1,17.72,West,281,0.0,2.7,40,0.00,,---,0.00,VWS V14.00,2013-12-24 04:57:00,
2013-12-23 23:00:00,40.5,18.1,17.72,West,281,0.0,2.7,40,0.00,,---,0.00,VWS V14.00,2013-12-24 05:00:00,
2013-12-23 23:03:00,40.3,18.0,17.72,SSW,199,0.0,2.7,40,0.00,,---,0.00,VWS V14.00,2013-12-24 05:03:00,
2013-12-23 23:09:00,40.2,17.8,17.72,SW,215,0.0,0.0,40,0.00,,---,0.00,VWS V14.00,2013-12-24 05:09:00,
2013-12-23 23:12:00,40.0,17.6,17.72,SW,215,0.0,0.0,40,0.00,,---,0.00,VWS V14.00,2013-12-24 05:12:00,
2013-12-23 23:15:00,40.0,17.6,17.72,SW,215,0.0,0.0,40,0.00,,---,0.00,VWS V14.00,2013-12-24 05:15:00,
2013-12-23 23:18:00,40.0,17.6,17.72,SW,215,0.0,0.0,40,0.00,,---,0.00,VWS V14.00,2013-12-24 05:18:00,
2013-12-23 23:21:00,39.8,16.9,17.72,South,180,0.0,0.0,39,0.00,,---,0.00,VWS V14.00,2013-12-24 05:21:00,
2013-12-23 23:27:00,39.4,17.1,17.72,South,180,2.7,2.7,40,0.00,,---,0.00,VWS V14.00,2013-12-24 05:27:00,
2013-12-23 23:30:00,39.4,17.1,17.72,South,180,2.7,2.7,40,0.00,,---,0.00,VWS V14.00,2013-12-24 05:30:00,
2013-12-23 23:33:00,39.4,17.1,17.72,South,180,2.7,2.7,40,0.00,,---,0.00,VWS V14.00,2013-12-24 05:33:00,
2013-12-23 23:39:00,39.3,17.0,17.72,WSW,245,0.0,2.7,40,0.00,,---,0.00,VWS V14.00,2013-12-24 05:39:00,
2013-12-23 23:42:00,39.3,17.0,17.72,WSW,245,0.0,2.7,40,0.00,,---,0.00,VWS V14.00,2013-12-24 05:42:00,
2013-12-23 23:45:00,38.9,16.6,17.72,WSW,245,0.0,2.7,40,0.00,,---,0.00,VWS V14.00,2013-12-24 05:45:00,
2013-12-23 23:48:00,38.7,16.5,17.72,WSW,245,0.0,2.7,40,0.00,,---,0.00,VWS V14.00,2013-12-24 05:48:00,
2013-12-23 23:51:00,38.7,16.5,17.72,North,2,3.1,3.1,40,0.00,,---,0.00,VWS V14.00,2013-12-24 05:51:00,
2013-12-23 23:54:00,38.7,16.5,17.72,North,2,3.1,3.1,40,0.00,,---,0.00,VWS V14.00,2013-12-24 05:54:00,
2013-12-23 23:57:00,38.5,16.3,17.72,North,2,3.1,3.1,40,0.00,,---,0.00,VWS V14.00,2013-12-24 05:57:00,